[[{"header":{"parameterUnit":"m.s-1","parameterCategory":1,"la1":30.2991,"la2":30.254,"lo1":-89.0895,"lo2":-89.0444,"dy":0.0017,"dx":0.0017,"nx":28,"ny":28,"refTime":"2024-07-18T09:00:00:Z","depth":0,"parameterNumber":2,"parameterNumberName":"U-component_of_WINDS"},"data":[0,0,0,0,0,0,0,0,0,0,0,0,0,0,0,0,0,0,0,0,0,0,0,0,0,0,0,0,0,0,0,0,0,0,0,0,0,0,0,0,0,0,0,0,0,0,0,0,0,0,0,0,0,0,0,0,0,0,0.6258,0.6259,0,0.6313,0.6313,0.6314,0.6367,0.6367,0.6368,0.6369,0.6426,0.6427,0.6427,0,0,0,0,0,0,0,0,0,0,0,0,0,0.6201,0.6202,0.6258,0.6259,0.626,0.6313,0.6313,0.6314,0.6366,0.6367,0.6368,0.6369,0.6425,0.6426,0.6428,0,0,0,0,0,0,0,0,0,0,0,0,0,0.6238,0.6202,0.6258,0.6292,0.6296,0.6312,0.6313,0.6314,0.6366,0.6367,0.6368,0.6369,0.6425,0.6426,0.6428,0.6416,0,0,0.6432,0.6432,0,0,0,0,0,0,0,0,0.6236,0.624,0.6286,0.629,0.6294,0.6334,0.6314,0.6348,0.6366,0.634,0.6369,0.637,0.6394,0.6398,0.6406,0.6418,0.6421,0.6432,0.6433,0.6433,0.6434,0,0,0,0,0,0,0,0.6233,0.6238,0.628,0.6287,0.6292,0.6305,0.6311,0.6321,0.6361,0.6342,0.6346,0.6352,0.6397,0.6405,0.6408,0.6422,0.6432,0.6433,0.6434,0.6434,0.6427,0.6426,0,0,0,0,0,0,0.6225,0.6235,0.6278,0.6281,0.6267,0.6305,0.6312,0.632,0.6361,0.6368,0.6351,0.6354,0.6402,0.6406,0.641,0.64,0.6433,0.6435,0.6435,0.6428,0.6427,0.6426,0,0,0,0,0,0,0.6224,0.6228,0.6276,0.6259,0.6267,0.6305,0.6313,0.6321,0.6329,0.6367,0.6375,0.6352,0.6403,0.6408,0.6414,0.6402,0.6435,0.6436,0.643,0.6428,0.6427,0.6377,0,0,0,0,0,0,0.6222,0.6228,0.6223,0.6259,0.6267,0.6278,0.6313,0.6321,0.6331,0.6336,0.637,0.6377,0.6404,0.6412,0.6415,0.6405,0.6437,0.6431,0.6429,0.6427,0.638,0.6374,0.6369,0,0,0,0,0,0.622,0.6207,0.6223,0.6227,0.6262,0.6277,0.6282,0.6313,0.633,0.6326,0.635,0.6376,0.6403,0.6412,0.6416,0.6406,0.6432,0.6429,0.6427,0.6383,0.6376,0.637,0,0,0,0,0,0,0.6169,0.6213,0.623,0.6229,0.6249,0.6286,0.6282,0.6305,0.6321,0.6325,0.6363,0.6371,0.6372,0.639,0.6399,0.6397,0.6421,0.6419,0.6385,0.6379,0.6374,0.637,0.6438,0,0,0,0,0,0.6158,0.6166,0.6204,0.6199,0.6208,0.6243,0.6251,0.6273,0.6296,0.6305,0.633,0.6351,0.6365,0.6373,0.6387,0.6383,0.6392,0.6378,0.6373,0.6368,0.6366,0.6366,0.6361,0.6419,0.6419,0.6419,0,0,0.6135,0.6159,0.6162,0.6189,0.6208,0.6216,0.625,0.6257,0.6264,0.6306,0.6313,0.6332,0.6358,0.6359,0.6361,0.6374,0.6352,0.6365,0.6361,0.6362,0.6363,0.6358,0.6353,0.6417,0.6418,0.6418,0,0,0.6097,0.6116,0.6115,0.6132,0.6159,0.6182,0.6182,0.6216,0.623,0.6237,0.627,0.6278,0.63,0.6318,0.633,0.6299,0.6323,0.6302,0.6274,0.6274,0.6269,0.6265,0.6255,0.6251,0.6301,0.63,0.63,0,0.6065,0.6078,0.6111,0.6116,0.6127,0.6166,0.6165,0.618,0.6211,0.6218,0.6232,0.6261,0.6281,0.6287,0.6279,0.6287,0.6289,0.6299,0.6267,0.6263,0.626,0.6251,0.6247,0.6298,0.6298,0.6298,0.6299,0,0.6038,0.6046,0.6042,0.607,0.6081,0.6083,0.6116,0.6123,0.6145,0.6167,0.6174,0.62,0.6221,0.6224,0.6245,0.6232,0.624,0.626,0.6285,0.6252,0.6244,0.624,0.6294,0.6295,0.6296,0.6296,0,0,0.597,0.6016,0.6014,0.6028,0.606,0.6068,0.6072,0.6092,0.6097,0.6117,0.6122,0.6139,0.6158,0.6172,0.6195,0.6194,0.6169,0.6215,0.6216,0.6206,0.6158,0.6143,0.6138,0.6185,0.6184,0.6184,0.6156,0,0.5939,0.5948,0.5977,0.5978,0.5986,0.6023,0.6026,0.6047,0.6068,0.6079,0.6102,0.6114,0.6137,0.6146,0.6147,0.6172,0.616,0.6174,0.619,0.6191,0.6183,0.6134,0.6118,0.6091,0.6153,0.6152,0.6152,0,0.5903,0.592,0.5921,0.5953,0.5958,0.5961,0.5982,0.5991,0.6016,0.6031,0.6046,0.6072,0.6078,0.6101,0.6112,0.612,0.6129,0.6142,0.6142,0.6145,0.617,0.6137,0.6083,0.6079,0.6147,0.6148,0.6148,0,0.5854,0.5878,0.5881,0.5892,0.5929,0.5931,0.5947,0.5972,0.5982,0.6,0.6007,0.6026,0.6036,0.6051,0.6081,0.6095,0.6088,0.6113,0.6102,0.6101,0.61,0.61,0.6047,0.6104,0.6104,0.6104,0.6104,0,0.5816,0.5816,0.586,0.5862,0.5863,0.5897,0.5897,0.5917,0.5939,0.5946,0.5979,0.5985,0.6025,0.6036,0.6059,0.6065,0.6069,0.6082,0.6089,0.608,0.6078,0.6087,0.6089,0.6103,0.6103,0.6103,0.6103,0,0.5763,0.5792,0.5799,0.5834,0.5843,0.5842,0.5872,0.5876,0.5899,0.5908,0.5912,0.5947,0.5962,0.5994,0.6017,0.6033,0.6033,0.6044,0.6025,0.6029,0.6016,0.6017,0.5968,0.5963,0.6021,0.6021,0.602,0,0.5737,0.5737,0.5772,0.5779,0.5794,0.5805,0.5815,0.5849,0.5858,0.5886,0.5887,0.5904,0.592,0.5941,0.597,0.5988,0.6,0.5982,0.6003,0.5994,0.6001,0.6001,0.6001,0.5977,0.5976,0.5976,0.5975,0,0.5688,0.5703,0.5716,0.5735,0.5746,0.5762,0.578,0.5784,0.5823,0.5832,0.5847,0.5859,0.5882,0.5899,0.5922,0.5939,0.5964,0.5968,0.5966,0.5958,0.5947,0.5953,0.6012,0.5969,0.597,0.597,0.5971,0.5971,0.5648,0.5651,0.5676,0.569,0.5707,0.5723,0.5728,0.5751,0.5764,0.5786,0.5805,0.5819,0.5844,0.5876,0.5892,0.5903,0.5915,0.5913,0.5913,0.5912,0.5908,0.5944,0.5907,0.5908,0.5908,0.5908,0.5908,0,0.5602,0.562,0.5632,0.5656,0.5667,0.5689,0.571,0.5718,0.5729,0.575,0.5765,0.5782,0.5799,0.5828,0.5847,0.5851,0.5863,0.5855,0.5855,0.5859,0.5896,0.5895,0.5845,0.5845,0.5845,0.5845,0.5845,0.5845,0.5579,0.5584,0.5602,0.5616,0.5634,0.5647,0.5657,0.5673,0.5689,0.5707,0.5721,0.574,0.5764,0.5786,0.5802,0.581,0.5816,0.5805,0.5817,0.585,0.5856,0.5862,0.5862,0.5806,0.5806,0.5779,0.5779,0.5779]},{"header":{"parameterUnit":"m.s-1","parameterCategory":1,"la1":30.2991,"la2":30.254,"lo1":-89.0895,"lo2":-89.0444,"dy":0.0017,"dx":0.0017,"nx":28,"ny":28,"refTime":"2024-07-18T09:00:00:Z","depth":0,"parameterNumber":3,"parameterNumberName":"V-component_of_WINDS"},"data":[0,0,0,0,0,0,0,0,0,0,0,0,0,0,0,0,0,0,0,0,0,0,0,0,0,0,0,0,0,0,0,0,0,0,0,0,0,0,0,0,0,0,0,0,0,0,0,0,0,0,0,0,0,0,0,0,0,0,0.4295,0.4295,0,0.4224,0.4223,0.4222,0.4215,0.4216,0.4217,0.4218,0.4142,0.414,0.4137,0,0,0,0,0,0,0,0,0,0,0,0,0,0.4425,0.4423,0.4296,0.4295,0.4294,0.4224,0.4223,0.4222,0.4215,0.4216,0.4217,0.4218,0.4143,0.414,0.4137,0,0,0,0,0,0,0,0,0,0,0,0,0,0.4363,0.4422,0.4296,0.4282,0.428,0.4224,0.4223,0.4222,0.4215,0.4216,0.4217,0.4218,0.4144,0.414,0.4136,0.4088,0,0,0.4124,0.4122,0,0,0,0,0,0,0,0,0.4366,0.4358,0.4285,0.4283,0.4281,0.423,0.4241,0.4177,0.4215,0.424,0.4218,0.4219,0.417,0.4164,0.4148,0.4085,0.4082,0.4123,0.4121,0.4119,0.4118,0,0,0,0,0,0,0,0.4371,0.4361,0.4267,0.4284,0.4281,0.4279,0.4271,0.4229,0.4199,0.4238,0.4237,0.4229,0.4169,0.4152,0.4146,0.408,0.4124,0.412,0.4117,0.4116,0.3974,0.3973,0,0,0,0,0,0,0.4378,0.4365,0.4269,0.4265,0.4327,0.4276,0.4267,0.4245,0.42,0.4194,0.4228,0.4229,0.4158,0.4151,0.4144,0.4084,0.4119,0.4115,0.4113,0.3976,0.3974,0.3973,0,0,0,0,0,0,0.4381,0.4369,0.4272,0.4315,0.4302,0.4272,0.4247,0.4243,0.4226,0.4192,0.4187,0.4216,0.4159,0.4149,0.4102,0.4082,0.4114,0.411,0.3977,0.3975,0.3973,0.3966,0,0,0,0,0,0,0.4384,0.437,0.4352,0.4314,0.43,0.4232,0.4246,0.4241,0.4219,0.4219,0.418,0.4174,0.4159,0.4108,0.4098,0.4077,0.4107,0.3979,0.3976,0.3974,0.3968,0.3964,0.396,0,0,0,0,0,0.4389,0.4353,0.4351,0.434,0.4277,0.4231,0.4223,0.4207,0.4217,0.4198,0.4177,0.4175,0.4086,0.4104,0.4092,0.4069,0.398,0.3977,0.3974,0.3969,0.3965,0.3961,0,0,0,0,0,0,0.4388,0.4347,0.4345,0.4296,0.4267,0.423,0.4206,0.4203,0.417,0.4172,0.4153,0.4144,0.4097,0.4079,0.4099,0.402,0.4034,0.4028,0.4034,0.4029,0.4026,0.4031,0.4103,0,0,0,0,0,0.4382,0.4349,0.4315,0.4275,0.4261,0.4236,0.4216,0.4206,0.4175,0.4163,0.4138,0.4108,0.4073,0.405,0.4016,0.3965,0.3956,0.3944,0.394,0.3937,0.3933,0.3904,0.3898,0.3963,0.3963,0.3963,0,0,0.4369,0.4343,0.4324,0.4274,0.4251,0.4217,0.4226,0.4189,0.4164,0.4157,0.4111,0.4092,0.4057,0.4008,0.3985,0.3991,0.3913,0.3934,0.3932,0.3928,0.3901,0.3894,0.3889,0.3961,0.3961,0.3961,0,0,0.4329,0.4306,0.427,0.4246,0.4211,0.4195,0.4186,0.415,0.4137,0.4091,0.4085,0.4055,0.3995,0.397,0.395,0.39,0.3897,0.389,0.3871,0.3843,0.3838,0.3833,0.3815,0.3809,0.3886,0.3886,0.3885,0,0.4317,0.4266,0.4251,0.4215,0.4193,0.4187,0.4149,0.4127,0.4083,0.4067,0.4075,0.4,0.3976,0.3921,0.3909,0.3893,0.3882,0.3894,0.384,0.3835,0.3831,0.3813,0.3807,0.3885,0.3885,0.3885,0.3885,0,0.4254,0.4218,0.4193,0.4151,0.4126,0.409,0.4069,0.4046,0.4038,0.4021,0.3974,0.3945,0.3906,0.3892,0.3884,0.3835,0.384,0.3844,0.3857,0.3824,0.3808,0.3801,0.3884,0.3884,0.3884,0.3884,0,0,0.4209,0.416,0.4151,0.4132,0.4093,0.4065,0.4028,0.399,0.397,0.394,0.3908,0.3858,0.3861,0.3838,0.3828,0.3804,0.3766,0.381,0.3809,0.3803,0.3711,0.3708,0.37,0.3764,0.3763,0.3762,0.3713,0,0.4164,0.4099,0.4084,0.4028,0.3995,0.3989,0.3956,0.3929,0.3912,0.3881,0.3863,0.3827,0.3835,0.3821,0.3797,0.3776,0.3747,0.3779,0.3734,0.3733,0.3742,0.3691,0.3688,0.3644,0.3707,0.3706,0.3705,0,0.4102,0.4071,0.4012,0.3977,0.3963,0.3934,0.3898,0.3869,0.3837,0.3827,0.3802,0.3794,0.3755,0.377,0.3716,0.3738,0.3719,0.3706,0.3704,0.3698,0.3716,0.3684,0.3629,0.3622,0.3695,0.3695,0.3696,0,0.4076,0.4019,0.3976,0.396,0.3919,0.3899,0.388,0.385,0.3828,0.3796,0.3782,0.3746,0.3726,0.3698,0.368,0.3693,0.3627,0.3642,0.3617,0.3618,0.3603,0.3604,0.3543,0.3592,0.3592,0.3592,0.3592,0,0.4026,0.399,0.3963,0.3937,0.3896,0.388,0.384,0.3821,0.3795,0.3764,0.3756,0.3728,0.3707,0.3675,0.3661,0.3618,0.3609,0.36,0.3596,0.36,0.3601,0.3587,0.3589,0.359,0.359,0.3591,0.3591,0,0.3989,0.397,0.3923,0.3888,0.3878,0.385,0.382,0.3794,0.3777,0.3739,0.3729,0.3703,0.3665,0.3645,0.3598,0.3589,0.3541,0.3539,0.3551,0.355,0.3526,0.3529,0.3454,0.3443,0.3499,0.3498,0.3498,0,0.3958,0.393,0.3893,0.3872,0.3854,0.3821,0.3799,0.3782,0.3758,0.3721,0.3699,0.3661,0.363,0.3571,0.3547,0.3511,0.3508,0.3485,0.3503,0.3508,0.3508,0.3509,0.3506,0.3481,0.3481,0.348,0.348,0,0.3906,0.3898,0.3866,0.3831,0.3805,0.3777,0.3749,0.3732,0.371,0.3685,0.3647,0.3623,0.3575,0.3538,0.35,0.3481,0.3476,0.3475,0.3467,0.347,0.3478,0.3473,0.3542,0.3476,0.3477,0.3477,0.3477,0.3477,0.387,0.3845,0.3815,0.378,0.3758,0.3732,0.3706,0.3686,0.3654,0.3615,0.3606,0.3566,0.3535,0.3485,0.3464,0.3432,0.3437,0.3426,0.3423,0.3421,0.3419,0.3484,0.3425,0.3426,0.3426,0.3426,0.3426,0,0.3817,0.3798,0.3766,0.3727,0.37,0.3699,0.3668,0.3645,0.361,0.3582,0.3552,0.3508,0.3472,0.3446,0.3409,0.3388,0.3385,0.3379,0.338,0.3376,0.3417,0.3428,0.3382,0.3382,0.3382,0.3382,0.3382,0.3382,0.3786,0.3744,0.3732,0.3678,0.3659,0.362,0.3602,0.3578,0.3556,0.3508,0.3478,0.3461,0.3434,0.3395,0.3362,0.3355,0.3342,0.3335,0.3328,0.3368,0.3373,0.3377,0.3386,0.3333,0.3333,0.3289,0.3289,0.3288]}]]